TimeCST,TemperatureF,Dew PointF,Humidity,Sea Level PressureIn,VisibilityMPH,Wind Direction,Wind SpeedMPH,Gust SpeedMPH,PrecipitationIn,Events,Conditions,WindDirDegrees,DateUTC
12:53 AM,46.0,33.1,61,30.08,10.0,West,6.9,-,N/A,,Clear,270,2014-01-17 06:53:00
1:53 AM,46.0,33.1,61,30.10,10.0,West,6.9,-,N/A,,Clear,260,2014-01-17 07:53:00
2:53 AM,44.1,32.0,63,30.10,10.0,West,5.8,-,N/A,,Clear,270,2014-01-17 08:53:00
3:53 AM,45.0,28.9,53,30.12,10.0,West,8.1,-,N/A,,Clear,280,2014-01-17 09:53:00
4:53 AM,46.9,27.0,46,30.14,10.0,NW,8.1,-,N/A,,Clear,310,2014-01-17 10:53:00
5:53 AM,46.0,24.1,42,30.16,10.0,NW,6.9,-,N/A,,Partly Cloudy,310,2014-01-17 11:53:00
6:53 AM,45.0,23.0,42,30.18,10.0,WNW,6.9,-,N/A,,Clear,300,2014-01-17 12:53:00
7:53 AM,46.0,17.1,31,30.19,10.0,NW,16.1,24.2,N/A,,Clear,310,2014-01-17 13:53:00
8:53 AM,45.0,18.0,34,30.24,10.0,NW,15.0,25.3,N/A,,Clear,320,2014-01-17 14:53:00
9:53 AM,46.9,19.0,33,30.26,10.0,NW,13.8,23.0,N/A,,Clear,320,2014-01-17 15:53:00
10:53 AM,48.9,17.1,28,30.26,10.0,NW,15.0,19.6,N/A,,Clear,320,2014-01-17 16:53:00
11:53 AM,51.1,12.0,21,30.23,10.0,NW,13.8,21.9,N/A,,Clear,320,2014-01-17 17:53:00
12:53 PM,51.1,9.0,18,30.22,10.0,WNW,15.0,-,N/A,,Clear,290,2014-01-17 18:53:00
1:53 PM,52.0,10.0,19,30.22,10.0,NW,18.4,25.3,N/A,,Clear,320,2014-01-17 19:53:00
2:53 PM,51.1,6.1,16,30.22,10.0,WNW,12.7,26.5,N/A,,Clear,300,2014-01-17 20:53:00
3:53 PM,50.0,7.0,18,30.22,10.0,WNW,11.5,20.7,N/A,,Clear,300,2014-01-17 21:53:00
4:53 PM,48.0,10.9,22,30.24,10.0,NW,9.2,17.3,N/A,,Clear,320,2014-01-17 22:53:00
5:53 PM,43.0,12.9,30,30.25,10.0,NW,6.9,-,N/A,,Clear,320,2014-01-17 23:53:00
6:53 PM,36.0,15.1,43,30.27,10.0,WNW,4.6,-,N/A,,Clear,300,2014-01-18 00:53:00
7:53 PM,30.0,24.1,79,30.27,10.0,NW,4.6,-,N/A,,Clear,310,2014-01-18 01:53:00
8:53 PM,26.1,21.0,81,30.28,10.0,WNW,4.6,-,N/A,,Clear,290,2014-01-18 02:53:00
9:53 PM,28.0,16.0,61,30.29,10.0,West,4.6,-,N/A,,Clear,280,2014-01-18 03:53:00
10:53 PM,26.1,17.1,69,30.29,10.0,West,4.6,-,N/A,,Clear,280,2014-01-18 04:53:00
11:53 PM,24.1,18.0,77,30.29,10.0,West,3.5,-,N/A,,Clear,260,2014-01-18 05:53:00